sat.trackr.live / text

‹ back to catalog

STARLINK-4748

NORAD 53823 · 2022-114F

PAYLOAD ACTIVE UNKNOWN

§ Identity

Operator
Country
US
Launch date
2022-09-19
Launch site
AFETR
Launch vehicle
Mass (kg)
RCS (m²)

Purposes: comms

External: N2YO · Heavens-Above · Gunter

§ Orbital elements

Epoch: 2026-09-20T21:49:11.276256Z

Period
93.85 min
Inclination
53.1594°
Eccentricity
0.0001271
Mean motion
15.34384422 rev/d
Perigee alt
461.9 km
Apogee alt
463.6 km
Semi-major
6,840.9 km
B*
-5.7597e-5
RAAN
89.4560°
Arg perigee
81.0209°
Mean anomaly
279.0937°
Rev number
22,311

§ Raw data

STARLINK-47481 53823U 22114F   26263.90915829 -.00002321  00000+0 -57597-4 0  99992 53823  53.1594  89.4560 0001271  81.0209 279.0937 15.34384422223115

JSON: /api/v1/satellites/53823 · /tle

For live sub-satellite position, see the globe view (requires WebGL).

§ Visibility from observer

Set your observer location to see the next 7 days of passes ≥ 10°. The values pass through the URL so the page stays shareable.

No JS? Fill the form by hand. The geolocation button needs JavaScript.